Hourly Data Report for October 21, 2014

All times are specified in Local Standard Time (LST). Add 1 hour to adjust for Daylight Saving Time where and when it is observed.

PETAWAWA AWOS 2
ONTARIO

45°57'00.000" N
77°19'00.000" W
130.10 m
6106396
71625
YWA

Download Data

Hourly Data (October 2014)
Hourly Data Report for October 21, 2014
Temp Definition
°C
Dew Point Temp Definition
°C
Rel Hum Definition
%
Wind Dir Definition
10's deg

Wind Spd Definition
km/h
Visibility Definition
km
Stn Press Definition
kPa
Hmdx Definition


Wind Chill Definition


Weather Definition


TIME
00:00 5.8 3.3 84 8 7 8.0 99.62     Rain
01:00 5.3 2.9 84 6 7 11.3 99.63     Rain
02:00 5.4 2.7 83 5 11 14.5 99.65     Rain
03:00 5.5 2.6 82 7 9 14.5 99.67     Rain
04:00 5.2 2.2 81 5 9 14.5 99.73     Drizzle
05:00 5.2 2.3 82 5 9 14.5 99.79     Rain
06:00 4.9 1.9 81 3 15 11.3 99.87     Rain
07:00 4.8 1.5 79 4 17 14.5 99.97     Rain
08:00 4.8 1.5 79 3 9 14.5 100.07     Rain
09:00 4.8 1.2 78 3 20 14.5 100.11     LegendNANA
10:00 4.7 0.5 74 3 19 14.5 100.20     LegendNANA
11:00 5.1 0.5 72 4 13 14.5 100.25     LegendNANA
12:00 5.7 0.8 71 1 11 14.5 100.26     LegendNANA
13:00 6.8 1.0 66 1 9 14.5 100.26     LegendNANA
14:00 7.9 0.7 60 5 19 14.5 100.27     LegendNANA
15:00 8.3 0.1 56 33 13 14.5 100.33     LegendNANA
16:00 8.3 -0.8 53 36 13 14.5 100.41     LegendNANA
17:00 8.2 -2.1 48 1 15 14.5 100.50     LegendNANA
18:00 7.9 -2.7 47 36 13 14.5 100.60     LegendNANA
19:00 7.3 -2.7 49 32 13 14.5 100.65     LegendNANA
20:00 7.0 -1.6 54 2 15 14.5 100.70     LegendNANA
21:00 6.7 -1.4 56 5 13 14.5 100.77     LegendNANA
22:00 6.4 -1.9 55 4 13 14.5 100.82     LegendNANA
23:00 5.7 -1.9 58 3 9 14.5 100.85     LegendNANA

Notes on Data Quality.

Legend

  • E = Estimated
  • M = Missing
  • NA = Not Available
  • ‡ = Partner data that is not subject to review by the National Climate Archives
Date modified: